Volver al catálogo

CZ-6A DEB

ActivoPO
NORAD 60621·DEBRIS·🇨🇳 China

Lanzado Aug 6, 2024 desde Taiyuan Satellite Launch Center

Loading…

Próximos Pases (próximas 24 horas)

TLE

ActualizadoSource: Space-Track

Época: Sep 14, 2026, 11:00 UTC

1 60621U 24140W   26257.45866727  .00003535  00000-0  53082-3 0  9990
2 60621  89.0082 259.1191 0101041 268.6541  90.3100 14.70907748112386

Sigue CZ-6A DEB en tiempo real con AllMySat

Download on the App Store